West Plains, MO

10:09 AM CDT on June 26, 2017 (GMT -0500)
West Plains Municipal

Weather History for KUNO - February, 2012

Change the Weather History Date:

Saturday, February 25, 2012

  Actual Average Record
Temperature  
Mean Temperature 40 °F 41 °F  
Max Temperature 50 °F 52 °F 78 °F (1981)
Min Temperature 30 °F 29 °F 5 °F (1967)
Degree Days  
Heating Degree Days 25 24  
Month to date heating degree days 625 689  
Since 1 July heating degree days 2965 3393  
Cooling Degree Days 0 0  
Month to date cooling degree days 0 0  
Year to date cooling degree days 0 0  
Moisture  
Dew Point 19 °F    
Average Humidity 47    
Maximum Humidity 69    
Minimum Humidity 24    
Precipitation  
Precipitation 0.00 in 0.11 in 1.43 in (2013)
Month to date precipitation 2.25 2.54  
Year to date precipitation 4.83 5.26  
Sea Level Pressure  
Sea Level Pressure 30.28 in    
Wind  
Wind Speed 7 mph (West)    
Max Wind Speed 17 mph    
Max Gust Speed 24 mph    
Visibility 10 miles    
Events      
T = Trace of Precipitation, MM = Missing Value Source: NWS Daily Summary

Daily Weather History Graph

Daily Weather History Graph

Search for Another Location

Airport or City:

Trip Planner

Search our weather history database for the weather conditions in past years. The results will help you decide how hot, cold, wet, or windy it might be!

Date:

Astronomy

Feb. 25, 2012 Rise Set
Actual Time 6:44 AM CST 5:57 PM CST
Civil Twilight 6:18 AM CST 6:23 PM CST
Nautical Twilight 5:48 AM CST 6:53 PM CST
Astronomical Twilight 5:18 AM CST 7:23 PM CST
Moon 8:15 AM CST (2/25) 9:50 PM CST (2/25)
Length of Visible Light 12h 05m
Length of Day
11h 13m
Waxing Crescent, 14% of the Moon is Illuminated
Feb 25
Waxing Crescent
Feb 29
First Quarter
Mar 8
Full
Mar 14
Last Quarter
Mar 22
New

Hourly Weather History & Observations

Time (CST) Temp. Windchill Dew Point Humidity Pressure Visibility Wind Dir Wind Speed Gust Speed Precip Events Conditions
12:53 AM 33.1 °F 30.0 °F 18.0 °F 54% 30.22 in 10.0 mi West 3.5 mph - N/A   Overcast
1:53 AM 34.0 °F 29.8 °F 17.1 °F 50% 30.23 in 10.0 mi West 4.6 mph - N/A   Overcast
3:53 AM 35.1 °F 30.1 °F 19.0 °F 52% 30.25 in 10.0 mi NNW 5.8 mph - N/A   Clear
4:53 AM 33.1 °F 27.7 °F 19.9 °F 59% 30.27 in 10.0 mi NW 5.8 mph - N/A   Clear
6:53 AM 30.0 °F 23.2 °F 21.9 °F 72% 30.32 in 10.0 mi NW 6.9 mph - N/A   Clear
7:53 AM 33.1 °F 24.4 °F 24.1 °F 70% 30.33 in 10.0 mi NW 11.5 mph - N/A   Clear
8:53 AM 37.0 °F 29.3 °F 21.9 °F 54% 30.35 in 10.0 mi NNW 11.5 mph 19.6 mph N/A   Clear
9:53 AM 39.9 °F 31.8 °F 19.9 °F 45% 30.35 in 10.0 mi NNW 15.0 mph 20.7 mph N/A   Clear
10:53 AM 43.0 °F 36.8 °F 19.0 °F 38% 30.36 in 10.0 mi NW 11.5 mph 17.3 mph N/A   Clear
11:53 AM 46.0 °F 39.9 °F 16.0 °F 30% 30.35 in 10.0 mi NW 13.8 mph - N/A   Clear
12:53 PM 46.9 °F - 14.0 °F 27% 30.32 in 10.0 mi Variable 5.8 mph - N/A   Clear
1:53 PM 48.0 °F - 15.1 °F 27% 30.30 in 10.0 mi Calm Calm - N/A   Clear
2:53 PM 48.9 °F - 14.0 °F 25% 30.28 in 10.0 mi WNW 6.9 mph - N/A   Clear
4:53 PM 48.9 °F - 17.1 °F 28% 30.26 in 10.0 mi SSW 6.9 mph - N/A   Clear
5:53 PM 46.0 °F 44.8 °F 18.0 °F 33% 30.25 in 10.0 mi South 3.5 mph - N/A   Clear
6:53 PM 43.0 °F 41.3 °F 19.9 °F 40% 30.25 in 10.0 mi SSE 3.5 mph - N/A   Clear
7:53 PM 41.0 °F 38.0 °F 19.9 °F 43% 30.23 in 10.0 mi SE 4.6 mph - N/A   Clear
8:53 PM 39.0 °F 34.0 °F 19.9 °F 46% 30.24 in 10.0 mi SSE 6.9 mph - N/A   Clear
9:53 PM 39.0 °F 34.8 °F 19.0 °F 45% 30.23 in 10.0 mi SSE 5.8 mph - N/A   Clear
10:53 PM 41.0 °F 34.7 °F 21.0 °F 45% 30.22 in 10.0 mi SSE 10.4 mph - N/A   Clear
11:53 PM 39.0 °F 32.3 °F 21.9 °F 50% 30.20 in 10.0 mi South 10.4 mph - N/A   Clear